This is the latest recevied weather packets stored in our database for station/object K5DLF-13. If no packets are shown the sender has not sent any weather packets the latest 10 day(s).
| Time | Temp. | Humidity | Pressure | Rain* | Wind** | Luminosity | Snow |
|---|---|---|---|---|---|---|---|
| 1777478970 | 28.33° C | 81% | 1010.7 hPa | 0 mm | - | 373 W/m² | - |
| 1777478670 | 28.33° C | 82% | 1010.7 hPa | 0 mm | - | 343 W/m² | - |
| 1777478370 | 28.33° C | 83% | 1010.5 hPa | 0 mm | - | 297 W/m² | - |
| 1777478070 | 28.33° C | 83% | 1010.5 hPa | 0 mm | - | 388 W/m² | - |
| 1777477770 | 27.78° C | 84% | 1010.4 hPa | 0 mm | - | 290 W/m² | - |
| 1777477470 | 27.78° C | 84% | 1010.3 hPa | 0 mm | - | 482 W/m² | - |
| 1777477170 | 27.78° C | 87% | 1010.2 hPa | 0 mm | - | 459 W/m² | - |
| 1777476870 | 27.22° C | 86% | 1010.4 hPa | 0 mm | - | 411 W/m² | - |
| 1777476570 | 27.22° C | 85% | 1010.4 hPa | 0 mm | - | 200 W/m² | - |
| 1777476270 | 27.22° C | 86% | 1010.4 hPa | 0 mm | - | 265 W/m² | - |
| 1777475970 | 27.22° C | 86% | 1010.5 hPa | 0 mm | - | 197 W/m² | - |
| 1777475670 | 27.22° C | 86% | 1010.5 hPa | 0 mm | - | 221 W/m² | - |
| 1777475370 | 27.22° C | 85% | 1010.6 hPa | 0 mm | - | 172 W/m² | - |
| 1777475070 | 27.22° C | 87% | 1010.3 hPa | 0 mm | - | 190 W/m² | - |
| 1777474770 | 27.22° C | 86% | 1010.3 hPa | 0 mm | - | 160 W/m² | - |
| 1777474470 | 27.22° C | 86% | 1010.1 hPa | 0 mm | - | 193 W/m² | - |
| 1777474170 | 27.22° C | 86% | 1009.8 hPa | 0 mm | - | 165 W/m² | - |
| 1777473870 | 27.22° C | 87% | 1009.8 hPa | 0 mm | - | 197 W/m² | - |
| 1777473570 | 26.67° C | 87% | 1009.7 hPa | 0 mm | - | 260 W/m² | - |
| 1777473270 | 26.67° C | 89% | 1009.7 hPa | 0 mm | - | 244 W/m² | - |
| 1777472970 | 26.67° C | 88% | 1009.7 hPa | 0 mm | - | 209 W/m² | - |
| 1777472670 | 26.67° C | 90% | 1009.7 hPa | 0 mm | - | 190 W/m² | - |
| 1777472370 | 26.67° C | 90% | 1009.7 hPa | 0 mm | - | 137 W/m² | - |
| 1777472070 | 26.11° C | 90% | 1009.5 hPa | 0 mm | - | 183 W/m² | - |
| 1777471770 | 26.11° C | 92% | 1009.6 hPa | 0 mm | - | 156 W/m² | - |
* Rain latest hour (hover to see other rain measurements)
** Current wind speed in m/s (hover to see current wind gust speed)